TimeCDT,TemperatureF,Dew PointF,Humidity,Sea Level PressureIn,VisibilityMPH,Wind Direction,Wind SpeedMPH,Gust SpeedMPH,PrecipitationIn,Events,Conditions,WindDirDegrees,DateUTC
12:56 AM,48.9,43.9,83,30.13,10.0,North,4.6,-,0.00,Rain,Light Rain,10,2012-10-07 05:56:00
1:56 AM,48.9,43.0,80,30.14,10.0,North,8.1,-,0.01,,Overcast,350,2012-10-07 06:56:00
2:56 AM,48.9,41.9,77,30.14,10.0,North,8.1,-,N/A,,Overcast,350,2012-10-07 07:56:00
3:56 AM,47.8,41.9,80,30.14,8.0,NNW,9.2,-,0.00,Rain,Light Rain,340,2012-10-07 08:56:00
4:56 AM,47.8,41.9,80,30.12,10.0,North,6.9,-,0.00,,Mostly Cloudy,360,2012-10-07 09:56:00
5:56 AM,47.8,41.0,77,30.15,10.0,North,9.2,-,N/A,,Overcast,350,2012-10-07 10:56:00
6:56 AM,47.8,39.9,74,30.17,10.0,North,13.8,-,N/A,,Overcast,350,2012-10-07 11:56:00
7:56 AM,47.8,41.0,77,30.18,10.0,North,11.5,-,N/A,,Overcast,350,2012-10-07 12:56:00
8:56 AM,48.9,41.0,74,30.21,10.0,North,10.4,-,N/A,,Overcast,350,2012-10-07 13:56:00
9:56 AM,50.0,41.0,71,30.23,10.0,NNW,11.5,-,N/A,,Overcast,340,2012-10-07 14:56:00
10:56 AM,50.9,41.0,69,30.23,10.0,Calm,Calm,-,N/A,,Overcast,0,2012-10-07 15:56:00
11:56 AM,54.9,39.9,57,30.22,10.0,NE,4.6,-,N/A,,Partly Cloudy,50,2012-10-07 16:56:00
12:56 PM,57.9,38.8,49,30.19,10.0,Calm,Calm,-,N/A,,Clear,0,2012-10-07 17:56:00
1:56 PM,57.9,39.9,51,30.17,10.0,Variable,6.9,-,N/A,,Partly Cloudy,0,2012-10-07 18:56:00
2:56 PM,59.0,37.9,46,30.16,10.0,North,5.8,-,N/A,,Clear,350,2012-10-07 19:56:00
3:56 PM,57.9,37.9,47,30.16,10.0,NW,8.1,-,N/A,,Clear,320,2012-10-07 20:56:00
4:56 PM,59.9,36.9,42,30.15,10.0,North,5.8,-,N/A,,Clear,360,2012-10-07 21:56:00
5:56 PM,56.8,36.9,47,30.16,10.0,North,8.1,-,N/A,,Clear,10,2012-10-07 22:56:00
6:56 PM,50.9,39.9,66,30.16,10.0,North,3.5,-,N/A,,Clear,360,2012-10-07 23:56:00
7:56 PM,52.9,37.9,57,30.17,10.0,North,6.9,-,N/A,,Clear,10,2012-10-08 00:56:00
8:56 PM,52.9,38.8,59,30.18,10.0,North,8.1,-,N/A,,Clear,10,2012-10-08 01:56:00
9:56 PM,52.9,39.9,61,30.18,10.0,North,4.6,-,N/A,,Clear,10,2012-10-08 02:56:00
10:56 PM,50.9,38.8,63,30.19,10.0,NNE,5.8,-,N/A,,Clear,30,2012-10-08 03:56:00
11:56 PM,50.9,38.8,63,30.19,10.0,North,6.9,-,N/A,,Overcast,360,2012-10-08 04:56:00